This is the latest recevied weather packets stored in our database for station/object OE3APM-13. If no packets are shown the sender has not sent any weather packets the latest 10 day(s).
| Time | Temp. | Humidity | Pressure | Rain* | Wind** | Luminosity | Snow |
|---|---|---|---|---|---|---|---|
| 1777710199 | 19.44° C | 41% | 1025 hPa | 0 mm | - | 721 W/m² | - |
| 1777709900 | 18.89° C | 40% | 1025 hPa | 0 mm | - | 712 W/m² | - |
| 1777709598 | 18.89° C | 42% | 1025 hPa | 0 mm | - | 701 W/m² | - |
| 1777709299 | 18.33° C | 45% | 1025.1 hPa | 0 mm | - | 687 W/m² | - |
| 1777709001 | 18.33° C | 45% | 1025.1 hPa | 0 mm | - | 679 W/m² | - |
| 1777708699 | 18.33° C | 45% | 1025.2 hPa | 0 mm | - | 668 W/m² | - |
| 1777708401 | 17.78° C | 46% | 1025.2 hPa | 0 mm | - | 656 W/m² | - |
| 1777708096 | 17.78° C | 49% | 1025.3 hPa | 0 mm | - | 643 W/m² | - |
| 1777707783 | 17.78° C | 48% | 1025.3 hPa | 0 mm | - | 633 W/m² | - |
| 1777707484 | 17.22° C | 49% | 1025.3 hPa | 0 mm | - | 619 W/m² | - |
| 1777707183 | 17.22° C | 50% | 1025.4 hPa | 0 mm | - | 606 W/m² | - |
| 1777706883 | 16.67° C | 50% | 1025.4 hPa | 0 mm | - | 596 W/m² | - |
| 1777706584 | 16.67° C | 53% | 1025.4 hPa | 0 mm | - | 584 W/m² | - |
| 1777706284 | 16.67° C | 52% | 1025.3 hPa | 0 mm | - | 570 W/m² | - |
| 1777705985 | 16.11° C | 56% | 1025.4 hPa | 0 mm | - | 559 W/m² | - |
| 1777705685 | 15.56° C | 58% | 1025.4 hPa | 0 mm | - | 545 W/m² | - |
| 1777705383 | 15.56° C | 58% | 1025.4 hPa | 0 mm | - | 533 W/m² | - |
| 1777705083 | 15° C | 58% | 1025.5 hPa | 0 mm | - | 519 W/m² | - |
| 1777704783 | 14.44° C | 62% | 1025.5 hPa | 0 mm | - | 504 W/m² | - |
| 1777704483 | 13.89° C | 61% | 1025.5 hPa | 0 mm | - | 490 W/m² | - |
| 1777704183 | 13.33° C | 57% | 1025.5 hPa | 0 mm | - | 476 W/m² | - |
| 1777703881 | 13.33° C | 69% | 1025.5 hPa | 0 mm | - | 461 W/m² | - |
| 1777703581 | 12.22° C | 71% | 1025.5 hPa | 0 mm | - | 446 W/m² | - |
| 1777703282 | 11.67° C | 73% | 1025.5 hPa | 0 mm | - | 429 W/m² | - |
| 1777702981 | 10.56° C | 78% | 1025.5 hPa | 0 mm | - | 415 W/m² | - |
* Rain latest hour (hover to see other rain measurements)
** Current wind speed in m/s (hover to see current wind gust speed)